Regional Weather Roundup
Issued by NWS Kansas City/Pleasant Hill, MO

Home | Current Version | Previous Version | Text Only | Print | Product List | Glossary On
Versions: 1 2 3 4 5 6 7 8 9 10 11 12 13 14 15 16 17 18 19 20 21 22 23 24 25 26 27 28 29 30 31 32 33 34 35 36 37 38 39 40 41 42 43 44 45 46 47 48 49 50
000
ASUS43 KEAX 271310
RWREAX

WEATHER ROUNDUP FOR EASTERN KANSAS AND NORTHWEST MISSOURI
NATIONAL WEATHER SERVICE KANSAS CITY/PLEASANT HILL MO
800 AM CDT FRI MAR 27 2015

KSZ040-057-103>105-MOZ028-029-037-043-271400-
...KANSAS CITY METROPOLITAN AREA...

CITY           SKY/WX    TMP DP  RH WIND       PRES   REMARKS
K.C. INTL      CLEAR     30  25  81 N10       30.25R WCI  21
K.C. DOWNTOWN  CLEAR     34  27  75 N10       30.25R WCI  26
LEES SUMMIT    CLEAR     32  27  81 N12       30.23R WCI  23
OLATHE - IXD   PTCLDY    32  29  88 N9        30.25R WCI  24
OLATHE - OJC   PTCLDY    34  29  82 N12       30.23R WCI  25
LAWRENCE       CLEAR     30  27  88 N7        30.26R WCI  23

$$

MOZ001>008-011>017-020>025-030>033-038>040-044>046-053-054-271400-
...NORTHERN AND CENTRAL MISSOURI...

CITY           SKY/WX    TMP DP  RH WIND       PRES   REMARKS
ST. JOSEPH     PTCLDY    29  24  82 N7        30.28R WCI  22
MOSBY          SUNNY     32  27  80 N9        30.26R WCI  24
WARRENSBURG    CLEAR     32  30  93 NW6       30.22R WCI  26
WHITEMAN AFB   PTCLDY    33  31  93 N8        30.20R WCI  26
CLINTON        PTCLDY    36  32  87 N10       30.21R WCI  28
SEDALIA        PTCLDY    35  31  85 N8        30.20R WCI  29
WARSAW         NOT AVBL
MARSHALL       CLEAR     34  28  80 N14       30.22R WCI  24
CHILLICOTHE      N/A     30  22  72 NW7       30.25R WCI  23
MOBERLY        CLOUDY    32  25  74 CALM      30.20
KIRKSVILLE     CLOUDY    31  21  66 N8        30.20R WCI  23

$$

MOZ041-047>049-056>058-063>065-088>090-097-271400-
...EASTERN AND SOUTHERN MISSOURI...

CITY           SKY/WX    TMP DP  RH WIND       PRES   REMARKS
ST. LOUIS INTL FLURRIES  34  26  72 N8        30.15R WCI  27
SPIRIT OF STL  PTSUNNY   34  23  64 N8G18     30.16R WCI  27
COLUMBIA       PTSUNNY   33  26  75 N9        30.18R WCI  25
JEFFERSON CITY CLOUDY    34  27  75 N9        30.20R WCI  27
MEXICO         MOSUNNY   32  30  93 N6        30.17  WCI  26
HANNIBAL       CLOUDY    34  21  60 N8        30.18R WCI  27
ROLLA          FLURRIES  30  27  88 MISG      30.13R
OSAGE BEACH    CLOUDY    36  28  75 N7        30.17R WCI  30
SPRINGFIELD    LGT RAIN  38  35  89 N13       30.13R WCI  30
BRANSON        CLOUDY    37  36  93 N3        30.12R
NEVADA         CLOUDY    36  30  80 N17       30.22R WCI  25
JOPLIN         CLOUDY    39  35  86 N10       30.18R WCI  32
WEST PLAINS    CLOUDY    37  29  72 MISG      30.09R

$$

IAZ060-094-KSZ022-034>040-054-083-096-NEZ052-066-093-271400-
...KANSAS...SOUTHEAST NEBRASKA AND IOWA...

CITY           SKY/WX    TMP DP  RH WIND       PRES   REMARKS
TOPEKA         MOCLDY    33  29  85 N8        30.28R WCI  26
MANHATTAN      CLOUDY    34  29  82 NE8       30.29R HAZE    WCI  27
EMPORIA        MOCLDY    34  29  82 N12       30.25R WCI  25
CHANUTE        CLOUDY    38  34  85 N13       30.23R WCI  30
WICHITA        CLOUDY    38  31  76 N10       30.25R WCI  31
OMAHA          PTCLDY    23  19  85 N7        30.31R WCI  15
LINCOLN        PTCLDY    22  17  81 N5        30.32R WCI  16
FALLS CITY     CLEAR     27  19  72 N9        30.29R WCI  18
LAMONI         CLEAR     26  19  74 NW9       30.23R WCI  17
DES MOINES     CLEAR     27  17  66 N7        30.25R WCI  19

$$




USA.gov is the U.S. government's official web portal to all federal, state and local government web resources and services.